Weather History for KMRH - December, 2013

Change the Weather History Date:

Monday, December 2, 2013

  Actual Average Record
Temperature  
Mean Temperature 52 °F -  
Max Temperature 55 °F 63 °F 75 °F (1982)
Min Temperature 46 °F 40 °F 20 °F (1967)
Degree Days  
Heating Degree Days 14    
Growing Degree Days 2 (Base 50)    
Moisture  
Dew Point 46 °F    
Average Humidity 84    
Maximum Humidity 97    
Minimum Humidity 72    
Precipitation  
Precipitation 0.00 in - - ()
Sea Level Pressure  
Sea Level Pressure 29.88 in    
Wind  
Wind Speed 7 mph (North)    
Max Wind Speed 13 mph    
Max Gust Speed -    
Visibility 9 miles    
Events      
Averages and records for this station are not official NWS values.
T = Trace of Precipitation, MM = Missing Value Source: NWS Daily Summary

Daily Weather History Graph

Daily Weather History Graph

Search for Another Location

Airport or City:

Trip Planner

Search our weather history database for the weather conditions in past years. The results will help you decide how hot, cold, wet, or windy it might be!

Date:

Astronomy

Dec. 02, 2013 Rise Set
Actual Time 6:56 AM EST 4:55 PM EST
Civil Twilight 6:29 AM EST 5:23 PM EST
Nautical Twilight 5:57 AM EST 5:54 PM EST
Astronomical Twilight 5:27 AM EST 6:24 PM EST
Moon 6:20 AM EST (12/2) 4:55 PM EST (12/2)
Length of Visible Light 10h 54m
Length of Day
9h 58m
Waning Crescent, 0% of the Moon is Illuminated
Dec 2
Waning Crescent
Dec 2
New
Dec 9
First Quarter
Dec 17
Full
Dec 25
Last Quarter

Hourly Weather History & Observations

Time (EST) Temp. Dew Point Humidity Pressure Visibility Wind Dir Wind Speed Gust Speed Precip Events Conditions
12:58 AM 48.9 °F 48.0 °F 97% 29.99 in 6.0 mi North 4.6 mph - N/A   Scattered Clouds
1:58 AM 48.0 °F 46.9 °F 96% 29.98 in 7.0 mi North 4.6 mph - N/A   Mostly Cloudy
2:58 AM 48.9 °F 46.9 °F 93% 29.96 in 10.0 mi NNE 8.1 mph - N/A   Mostly Cloudy
3:58 AM 48.9 °F 48.0 °F 97% 29.94 in 10.0 mi NNE 10.4 mph - N/A   Overcast
4:58 AM 50.0 °F 48.0 °F 93% 29.94 in 9.0 mi NE 5.8 mph - N/A   Overcast
5:58 AM 50.0 °F 48.0 °F 93% 29.94 in 8.0 mi NNE 6.9 mph - N/A   Overcast
6:58 AM 48.9 °F 46.9 °F 93% 29.93 in 8.0 mi ENE 5.8 mph - N/A   Mostly Cloudy
7:58 AM 50.0 °F 48.0 °F 93% 29.92 in 7.0 mi NNE 6.9 mph - N/A   Overcast
8:58 AM 51.1 °F 48.0 °F 89% 29.91 in 9.0 mi NE 6.9 mph - N/A   Overcast
9:58 AM 53.1 °F 48.9 °F 86% 29.91 in 10.0 mi NNE 6.9 mph - N/A   Scattered Clouds
10:58 AM 54.0 °F 48.9 °F 83% 29.89 in 10.0 mi NNE 10.4 mph - N/A   Scattered Clouds
11:58 AM 55.0 °F 48.0 °F 77% 29.86 in 10.0 mi NNE 8.1 mph - N/A   Overcast
12:58 PM 55.9 °F 46.9 °F 72% 29.82 in 10.0 mi NNE 9.2 mph - 0.00 in   Overcast
1:58 PM 55.0 °F 46.9 °F 74% 29.80 in 10.0 mi NNE 6.9 mph - N/A   Mostly Cloudy
2:58 PM 55.0 °F 46.9 °F 74% 29.80 in 10.0 mi North 6.9 mph - N/A   Scattered Clouds
3:58 PM 55.0 °F 46.0 °F 72% 29.81 in 10.0 mi North 6.9 mph - N/A   Overcast
4:58 PM 54.0 °F 46.0 °F 75% 29.81 in 10.0 mi NNW 12.7 mph - N/A   Overcast
5:58 PM 51.1 °F 44.1 °F 77% 29.81 in 10.0 mi North 9.2 mph - N/A   Clear
6:58 PM 51.1 °F 45.0 °F 80% 29.83 in 10.0 mi NNW 11.5 mph - N/A   Mostly Cloudy
7:58 PM 51.1 °F 44.1 °F 77% 29.84 in 10.0 mi North 5.8 mph - N/A   Mostly Cloudy
8:58 PM 51.1 °F 45.0 °F 80% 29.86 in 10.0 mi NNW 8.1 mph - N/A   Overcast
9:58 PM 51.1 °F 43.0 °F 74% 29.85 in 10.0 mi North 6.9 mph - N/A   Overcast
10:58 PM 48.9 °F 41.0 °F 74% 29.86 in 10.0 mi NNW 6.9 mph - N/A   Partly Cloudy
11:58 PM 46.9 °F 43.0 °F 86% 29.86 in 10.0 mi North 3.5 mph - N/A   Mostly Cloudy